Theta_e
328 327 325 326 326 326 325 324 322 323 323 323 323 323 324 325 325 326 326 325 326 326 326 325 325 326 328 327 327 327 326 325 325 324 324 324 322 322 322 321 319 321
327 327 325 325 324 324 325 324 323 323 323 323 323 323 324 324 324 325 324 324 325 325 325 325 325 326 326 327 326 326 324 324 323 326 323 322 322 322 322 321 321 319
326 325 325 324 325 324 323 323 323 323 323 322 322 322 324 324 324 323 324 324 324 323 324 324 324 325 326 325 326 326 325 323 323 323 323 322 321 322 321 321 320 320
326 326 326 326 325 324 323 322 321 322 322 322 322 321 323 324 324 323 323 328 323 323 323 323 324 324 324 324 325 323 324 323 323 323 322 321 322 322 321 321 320 320
326 325 326 326 325 324 323 322 322 322 322 323 323 324 324 323 323 323 323 322 322 322 322 322 322 323 322 323 323 323 322 321 320 323 323 321 321 322 321 321 320 320
324 325 325 326 324 322 322 322 322 322 322 322 323 323 324 323 323 323 323 322 321 322 321 321 321 321 322 322 321 323 321 322 321 322 322 322 320 318 323 321 320 320
324 324 324 324 322 322 323 322 322 323 323 323 323 323 323 322 323 323 322 322 321 321 321 320 320 319 320 321 320 319 319 320 321 323 323 320 320 319 321 321 321 320
324 324 322 321 320 321 322 322 323 323 323 323 323 323 323 323 323 322 322 322 321 320 320 320 319 319 318 319 319 317 317 320 321 321 321 320 320 321 320 322 320 320
324 323 322 322 321 321 321 322 323 323 324 323 323 322 322 323 322 321 322 321 321 320 319 318 318 317 317 318 317 318 318 317 319 320 321 320 320 321 322 320 318 319
322 323 322 322 322 322 321 321 322 323 324 324 324 323 322 321 321 321 321 320 319 318 318 318 317 316 316 316 318 317 317 317 317 318 319 320 321 321 321 320 320 318
322 323 322 322 323 322 322 322 322 323 324 324 324 323 321 320 320 320 319 318 318 318 318 317 317 317 316 315 314 316 317 317 317 317 317 318 319 320 324 321 319 319
322 323 323 322 322 321 321 322 323 323 324 324 324 323 320 320 319 318 319 317 317 317 318 317 317 316 316 315 314 314 315 315 316 316 317 317 316 317 320 319 319 318
321 320 321 322 322 321 321 323 323 323 322 322 323 322 320 319 319 318 317 317 316 317 317 315 314 314 313 311 311 312 313 314 314 314 314 315 315 316 317 316 315 313
321 321 321 321 320 321 322 323 323 323 323 322 322 321 320 319 318 317 315 314 314 314 312 311 310 309 309 309 309 311 313 314 315 315 314 314 314 315 316 317 316 315
321 321 321 321 320 321 321 321 322 322 320 320 320 320 321 319 316 314 312 311 309 309 309 308 309 308 306 307 309 309 312 314 314 315 315 314 313 313 312 313 313 313
322 321 321 320 320 320 320 320 321 320 320 319 319 319 316 314 313 312 311 309 308 307 306 307 306 304 303 301 305 308 311 313 314 314 314 314 312 311 310 311 312 311
321 320 320 319 320 320 320 319 319 319 319 318 318 316 313 312 311 309 308 308 307 306 304 303 301 301 298 294 295 301 311 313 313 313 313 313 312 310 309 310 310 310
320 321 320 319 319 319 320 319 318 317 316 316 315 313 311 310 309 307 306 304 303 303 301 300 299 298 297 298 299 301 307 313 313 313 312 311 310 310 311 312 311 311
312 319 319 318 318 319 318 318 317 315 314 313 311 310 310 308 306 305 304 303 303 302 300 299 298 295 298 300 298 300 302 309 313 313 312 310 311 312 312 311 310 310
308 312 317 317 316 317 316 316 315 313 311 309 309 308 306 305 303 302 301 301 301 300 298 297 297 296 299 298 298 299 301 306 313 314 314 313 312 312 311 310 310 309
306 307 310 313 315 314 313 312 310 308 308 306 305 304 303 301 300 299 299 299 298 298 299 297 297 294 298 297 298 300 302 306 314 314 313 312 313 312 310 309 308 309
304 304 306 308 310 310 308 307 305 304 303 302 302 300 300 299 298 298 297 296 297 298 299 298 296 293 297 298 299 301 304 312 312 311 311 311 311 310 309 308 306 305
304 303 303 305 305 305 304 303 302 301 301 301 299 299 298 297 296 296 296 295 296 296 297 296 295 294 294 297 300 301 305 310 309 309 307 305 305 305 305 305 304 303
303 304 303 302 303 303 303 302 302 301 301 301 298 298 297 296 296 295 295 295 294 294 295 294 294 294 293 295 297 301 306 310 309 307 303 301 299 298 297 297 299 303
302 303 303 302 302 302 302 301 301 301 301 301 299 298 296 296 295 294 294 295 295 296 299 295 294 294 293 293 295 299 307 310 308 305 302 300 298 297 297 296 296 298
302 302 302 303 302 302 302 301 301 300 299 298 297 297 296 296 296 295 295 295 296 296 296 295 294 294 293 292 294 295 299 307 306 304 300 299 300 299 297 297 298 297
Wind_Speed
8 8 7 6 6 6 7 7 7 7 7 6 7 6 6 5 4 6 6 5 6 6 6 5 5 4 5 5 5 5 6 6 5 5 6 6 5 6 6 5 4 6
9 9 9 8 7 5 5 6 7 7 7 6 6 5 5 5 5 6 6 6 6 6 5 5 5 5 5 6 5 6 5 5 5 3 6 5 5 5 6 6 6 4
8 8 10 11 9 8 7 6 5 5 6 5 3 3 6 4 6 4 6 6 6 5 5 5 5 5 6 5 5 6 6 6 5 4 5 5 5 6 5 5 5 6
10 10 10 9 9 9 7 6 5 4 5 6 5 2 3 5 6 6 5 6 6 5 5 5 5 5 4 5 5 5 5 5 5 5 4 3 5 5 5 5 4 4
10 9 8 8 7 7 7 7 7 6 7 7 7 8 6 6 6 7 6 5 5 6 5 5 5 5 5 5 5 5 4 4 3 5 5 5 4 4 4 5 5 5
4 5 6 6 5 5 5 6 6 6 7 7 9 6 5 6 7 7 6 6 5 6 5 5 6 5 5 5 5 5 5 5 4 4 5 5 3 2 4 4 5 5
4 4 5 4 4 6 7 6 5 6 7 7 6 7 5 5 7 6 5 5 5 5 6 6 5 5 5 5 5 4 4 4 4 5 5 4 4 3 3 4 5 5
5 4 3 0 2 3 6 6 7 8 6 6 7 6 6 6 7 5 4 5 5 4 5 5 4 5 4 5 5 4 4 4 5 5 4 4 4 4 4 4 4 5
3 3 2 4 7 7 6 7 8 8 7 8 7 6 6 8 8 7 7 6 5 5 5 4 5 4 4 5 5 6 6 4 4 5 5 5 5 5 5 3 4 4
4 4 5 9 8 6 7 6 5 6 8 8 8 7 7 5 7 8 7 6 6 5 5 5 4 4 5 4 6 6 6 6 5 4 5 5 6 5 5 4 4 4
5 3 7 7 5 3 5 7 6 7 8 9 8 8 7 6 6 7 7 7 7 6 5 5 5 5 5 4 4 5 6 6 5 5 5 4 4 5 5 5 4 4
6 4 6 5 3 3 4 1 2 1 4 8 9 9 7 7 8 6 7 7 6 6 5 5 5 5 6 6 5 4 4 5 5 5 5 4 4 4 4 3 3 1
3 4 6 9 8 5 4 6 8 9 5 4 6 9 8 8 7 8 6 7 5 6 5 5 5 5 5 4 4 4 5 5 5 4 4 4 3 3 4 6 7 8
8 8 7 5 4 5 6 8 9 8 8 2 4 8 9 9 8 6 5 4 5 5 4 4 5 5 4 4 4 5 5 5 6 5 4 4 4 4 5 5 6 6
7 10 4 5 4 5 7 9 7 5 6 5 5 5 8 7 6 7 6 6 4 5 5 4 5 5 4 4 5 4 5 6 6 5 5 6 5 4 2 4 5 3
7 8 6 4 5 6 8 8 8 6 7 5 7 5 4 7 7 6 7 7 6 5 4 4 3 3 2 4 3 4 5 5 5 5 6 6 7 6 4 5 4 4
6 7 5 7 8 7 7 6 7 7 8 9 7 5 6 8 7 6 6 5 7 6 6 3 2 1 0 2 4 4 4 5 6 5 5 7 7 7 7 7 5 5
5 7 6 7 7 7 8 7 7 5 7 7 7 7 5 6 6 6 6 5 5 5 5 3 1 2 1 1 3 6 6 6 6 7 6 6 7 7 7 7 7 5
9 4 6 6 6 7 7 9 8 7 7 7 6 4 3 9 6 7 7 5 6 7 4 2 2 4 2 2 6 9 11 9 6 6 8 7 7 7 7 7 6 6
9 8 3 7 4 7 8 8 8 6 6 6 5 3 4 9 6 7 6 6 5 7 5 3 3 6 3 7 9 12 13 10 6 8 7 7 6 6 5 6 6 7
11 9 9 2 5 5 7 8 8 7 8 5 6 3 5 9 8 8 6 6 5 5 7 5 4 7 6 8 10 14 15 11 8 8 8 8 7 7 6 6 5 5
11 11 10 10 5 6 7 8 8 7 8 6 6 7 4 8 8 7 7 7 5 5 7 8 6 10 10 7 11 16 16 10 9 10 9 9 9 9 8 6 5 5
11 11 11 11 9 7 8 9 9 10 8 6 9 6 8 5 9 7 6 7 8 6 8 8 7 10 9 10 10 15 14 9 10 9 9 9 8 7 7 7 7 6
10 10 12 11 10 9 7 9 10 9 9 6 9 7 10 6 7 9 9 8 9 9 6 8 7 10 11 11 11 10 11 11 9 10 9 8 8 7 7 8 10 16
11 10 9 12 10 10 7 8 10 10 8 9 9 9 9 6 6 9 9 9 9 9 12 11 8 10 13 12 13 11 8 8 9 10 10 7 7 7 6 6 7 9
11 11 10 8 12 9 8 8 9 10 10 12 11 9 9 8 8 9 11 9 8 9 9 9 10 9 11 14 13 13 10 7 6 10 10 8 6 6 8 7 5 6
Wind_Direction
175 169 169 224 222 204 184 184 185 181 188 182 186 195 194 196 172 175 175 174 177 177 177 173 166 159 162 164 167 159 164 168 161 162 174 172 174 165 169 163 161 172
185 169 168 198 216 215 202 196 184 181 183 182 189 183 189 163 179 167 168 172 175 176 169 165 167 163 162 163 161 156 154 151 155 161 158 170 172 172 177 170 172 159
179 176 173 185 195 192 194 198 188 185 171 176 167 179 170 173 162 168 165 166 165 161 164 165 161 164 163 161 158 155 156 155 157 161 157 167 161 174 178 165 159 167
187 183 181 186 188 188 183 177 188 166 137 129 116 79 283 190 164 159 170 162 154 160 160 159 162 158 160 157 152 156 159 163 160 154 155 149 172 170 169 160 155 155
187 184 184 184 187 183 175 173 173 167 161 159 152 182 183 183 162 160 164 164 159 155 157 158 154 157 155 154 158 156 155 148 149 156 157 172 181 170 167 152 152 165
186 182 178 181 177 169 179 177 167 163 165 162 178 180 180 187 159 164 165 161 165 156 157 157 156 159 158 154 155 163 154 146 163 159 163 175 181 173 155 159 156 165
188 182 189 179 171 180 176 176 164 164 171 177 161 187 170 187 159 161 163 159 157 161 160 163 161 160 160 152 157 155 153 155 161 166 169 178 163 173 175 164 167 173
192 185 165 36 288 236 178 174 168 170 172 163 181 186 168 174 155 155 156 156 155 162 162 160 160 157 156 151 155 153 160 166 166 168 171 171 169 176 181 184 169 175
243 227 142 167 201 219 195 181 171 158 161 186 184 176 183 167 159 156 160 158 157 165 163 161 159 158 160 159 165 164 167 172 173 168 170 171 177 184 181 169 171 185
234 205 206 222 208 196 192 186 176 174 178 182 172 171 175 167 157 160 159 158 160 167 170 165 159 160 163 172 170 167 164 168 170 176 175 178 179 178 176 170 184 187
238 182 220 227 239 246 203 181 182 180 180 175 164 167 165 159 165 161 159 159 163 168 172 168 171 166 166 173 182 174 169 168 172 176 179 181 182 175 174 176 175 194
227 213 218 243 273 311 293 297 110 168 191 166 163 165 165 164 165 172 162 163 161 163 168 174 167 166 170 179 186 183 174 176 174 178 180 175 171 170 176 175 165 135
235 231 207 202 209 195 156 147 165 164 194 231 170 168 162 164 171 169 166 160 158 147 154 154 154 162 167 172 176 174 175 177 181 181 167 165 157 141 102 86 87 83
247 227 218 210 184 158 159 168 173 170 168 177 201 176 167 168 171 162 139 129 131 130 128 132 130 135 142 149 162 164 164 176 178 177 158 120 108 120 143 145 124 127
230 253 219 211 182 168 167 168 175 164 126 110 346 269 173 159 134 132 125 114 111 123 126 121 132 141 138 145 159 154 152 157 165 161 143 119 105 96 75 82 105 118
223 235 234 182 193 194 175 164 157 157 134 120 125 305 286 127 134 137 137 138 132 114 106 110 119 132 126 151 161 146 149 140 138 145 134 125 118 104 81 75 75 81
224 229 193 189 189 189 166 150 155 161 150 139 143 148 241 142 139 134 131 134 133 132 122 114 120 96 225 198 159 176 143 138 141 128 117 124 124 120 115 104 88 79
271 210 201 194 182 177 169 148 142 148 131 138 144 143 231 130 124 127 120 119 111 106 106 115 110 16 3 255 193 169 153 129 122 117 118 119 119 117 118 113 107 96
338 265 188 205 176 172 154 151 149 150 137 127 140 125 199 125 129 117 117 113 117 111 96 65 69 4 63 147 160 138 123 115 108 117 118 119 120 125 126 124 120 104
341 345 249 178 163 155 144 143 147 140 107 99 91 121 167 111 106 104 99 100 100 109 101 68 44 355 74 136 147 122 111 103 102 98 94 93 94 97 103 106 113 122
358 0 360 351 136 134 122 119 116 103 109 110 105 128 153 114 117 107 95 91 91 98 99 69 27 13 86 132 133 112 103 98 94 91 87 81 73 71 73 84 89 90
9 8 13 5 14 96 101 99 95 96 98 86 90 88 48 94 84 88 87 83 69 76 89 70 36 29 75 99 119 108 99 94 91 88 87 78 69 63 59 50 47 59
19 21 20 23 17 39 75 80 84 83 69 87 83 64 78 44 92 76 75 77 72 61 75 72 50 24 57 82 89 106 102 100 97 92 82 73 68 66 64 62 59 50
9 27 38 25 34 22 53 79 84 77 79 66 82 82 80 49 68 81 67 61 66 64 56 78 60 31 41 57 69 73 106 111 107 101 90 88 85 70 70 68 55 51
12 12 41 51 26 42 12 71 78 84 82 75 70 69 63 60 52 77 75 62 57 66 61 64 60 39 35 48 58 69 88 103 106 103 98 93 94 83 62 64 70 61
13 20 12 49 69 36 39 40 73 80 82 85 73 67 69 54 52 58 68 61 51 53 56 51 58 48 35 44 52 51 59 88 86 104 107 100 83 90 85 52 37 57